This is the latest recevied weather packets stored in our database for station/object DG9MHV-10. If no packets are shown the sender has not sent any weather packets the latest 10 day(s).
| Time | Temp. | Humidity | Pressure | Rain* | Wind** | Luminosity | Snow |
|---|---|---|---|---|---|---|---|
| 1777814772 | 27.78° C | 60% | 1013.4 hPa | - | - | - | - |
| 1777813872 | 27.22° C | 62% | 1013.5 hPa | - | - | - | - |
| 1777812972 | 27.78° C | 69% | 1013.6 hPa | - | - | - | - |
| 1777812072 | 27.22° C | 79% | 1013.7 hPa | - | - | - | - |
| 1777811172 | 27.22° C | 72% | 1013.9 hPa | - | - | - | - |
| 1777810272 | 27.22° C | 72% | 1014 hPa | - | - | - | - |
| 1777809372 | 27.22° C | 89% | 1014.2 hPa | - | - | - | - |
| 1777808472 | 26.67° C | 88% | 1014.3 hPa | - | - | - | - |
| 1777807572 | 25.56° C | 100% | 1014.4 hPa | - | - | - | - |
| 1777806671 | 26.11° C | 100% | 1014.6 hPa | - | - | - | - |
| 1777805771 | 26.11° C | 100% | 1014.7 hPa | - | - | - | - |
| 1777804871 | 26.67° C | 100% | 1014.8 hPa | - | - | - | - |
| 1777803971 | 27.22° C | 100% | 1015.1 hPa | - | - | - | - |
| 1777803071 | 27.78° C | 100% | 1015.2 hPa | - | - | - | - |
| 1777802171 | 27.78° C | 100% | 1015.3 hPa | - | - | - | - |
| 1777801271 | 28.89° C | 76% | 1015.5 hPa | - | - | - | - |
| 1777800371 | 28.33° C | 90% | 1015.6 hPa | - | - | - | - |
| 1777799471 | 28.89° C | 82% | 1015.7 hPa | - | - | - | - |
| 1777798571 | 30° C | 91% | 1015.8 hPa | - | - | - | - |
| 1777797671 | 30.56° C | 88% | 1015.8 hPa | - | - | - | - |
| 1777796771 | 30.56° C | 84% | 1015.9 hPa | - | - | - | - |
| 1777795870 | 31.11° C | 84% | 1016 hPa | - | - | - | - |
| 1777794970 | 30.56° C | 93% | 1016 hPa | - | - | - | - |
| 1777794070 | 30.56° C | 89% | 1016.1 hPa | - | - | - | - |
| 1777793170 | 31.67° C | 87% | 1016.1 hPa | - | - | - | - |
* Rain since midnight (hover to see other rain measurements)
** Current wind speed in m/s (hover to see current wind gust speed)